Regional Weather Roundup
Issued by NWS State College, PA

Current Version | Previous Version | Text Only | Print | Product List | Glossary On
Versions: 1 2 3 4 5 6 7 8 9 10 11 12 13 14 15 16 17 18 19 20 21 22 23 24 25 26 27 28 29 30 31 32 33 34 35 36 37 38 39 40 41 42 43 44 45 46 47 48 49 50
000
ASUS41 KCTP 221510
RWRCTP

REGIONAL WEATHER ROUNDUP
NATIONAL WEATHER SERVICE STATE COLLEGE PA
1100 AM EDT FRI AUG 22 2014

Note: "fair" indicates few or no clouds below 12,000 feet with no
significant weather and/or obstructions to visibility.

* = STATION THAT DOES NOT REPORT PRECIPITATION /E.G. RAIN...SNOW...ETC/
    THUNDER OR FOG.

PAZ002>004-007>009-013>016-020>023-029>032-221600-
WESTERN PENNSYLVANIA

CITY           SKY/WX    TMP DP  RH WIND       PRES   REMARKS
ERIE           CLOUDY    75  68  78 S3        30.00S
MEADVILLE      CLOUDY    71  68  90 SW3       30.03S
FRANKLIN*      CLOUDY    68  64  88 W3        30.05S
NEW CASTLE     NOT AVBL
BEAVER COUNTY  NOT AVBL
BUTLER*        PTSUNNY   75  66  73 SW5       30.05S
PITTSBURGH INT PTSUNNY   74  68  81 W3        30.03S
PITTSBURGH     CLOUDY    75  67  76 VRB3      30.03S
INDIANA*       CLOUDY    72  68  88 SW3       30.08S
LATROBE        CLOUDY    73  72  94 CALM      30.05R
WASHINGTON CO* CLOUDY    75  68  78 CALM      30.04S
$$

PAZ004>006-010>012-017>019-024>028-033>037-041-042-045-046-049>053-221600-
CENTRAL PENNSYLVANIA

CITY           SKY/WX    TMP DP  RH WIND       PRES   REMARKS
BRADFORD       CLOUDY    70  64  81 SW3       30.06R
DUBOIS         LGT RAIN  68  67  96 SW5       30.05R FOG
CLEARFIELD     RAIN      69  68  96 S3        30.05S FOG
JOHNSTOWN      LGT RAIN  67  65  93 W3        30.08S FOG
ALTOONA        HVY RAIN  69  68  96 NW5       30.06S FOG
STATE COLLEGE  CLOUDY    75  68  78 CALM      30.03F
WILLIAMSPORT   CLOUDY    74  66  76 VRB5      30.00F
SELINSGROVE    PTSUNNY   78  68  71 VRB3      30.02F
FT INDIANTOWN  CLOUDY    71  71  98 NE5       30.04S
CAPITAL CITY   CLOUDY    72  68  87 E3        30.02F FOG
HARRISBURG     CLOUDY    74  69  85 SE3       30.01F
YORK           CLOUDY    73  69  87 CALM      30.02S FOG
$$

PAZ038>040-043-044-047-048-054-055-060>062-067>071-221600-
EASTERN PENNSYLVANIA

CITY           SKY/WX    TMP DP  RH WIND       PRES   REMARKS
SCRANTON       CLOUDY    72  63  73 W3        30.05S
MOUNT POCONO   CLOUDY    63  61  93 SE7       30.09S FOG
ALLENTOWN      CLOUDY    70  64  81 E3        30.05S
QUAKERTOWN*    CLOUDY    70  64  83 MISG      30.06S
READING        CLOUDY    71  64  78 CALM      30.03F
LANCASTER      CLOUDY    74  65  73 E5        30.03S
COATESVILLE    CLOUDY    72  72 100 NE3       30.05S
POTTSTOWN      CLOUDY    69  65  86 NE5       30.05S
BLUE BELL      CLOUDY    72  68  88 E3        30.03F
DOYLESTOWN     CLOUDY    71  67  87 S3        30.04S
WILLOW GROVE   NOT AVBL
NORTH PHILA    CLOUDY    74  64  71 E8        30.04F
PHILADELPHIA   CLOUDY    74  67  78 E8        30.03S
$$


USA.gov is the U.S. government's official web portal to all federal, state and local government web resources and services.